Wetterdaten: Donnerstag, 11.09.2014
Datum Zeit Temp. A. Feuchte A. Luftdruck Regen Wind Richtung Richtung Sonnenschein ET UV Solar Taupunkt Windchill Windben Empfang
11.09.2014 00:00 13,5 C 87 % 1011,6 hPa 0,0 l/m 0,0 km/h (0 Bft) SO 144 0 min 0,000 mm 0,0 UV-I 0 W/m 11,4 C 13,5 C 0,0 km/h (0 Bft) 0,00 %
11.09.2014 00:15 13,5 C 87 % 1011,5 hPa 0,0 l/m 0,0 km/h (0 Bft) S 181 0 min 0,000 mm 0,0 UV-I 0 W/m 11,4 C 13,5 C 0,0 km/h (0 Bft) 0,00 %
11.09.2014 00:30 13,5 C 87 % 1011,5 hPa 0,0 l/m 0,0 km/h (0 Bft) S 173 0 min 0,000 mm 0,0 UV-I 0 W/m 11,4 C 13,5 C 0,0 km/h (0 Bft) 0,00 %
11.09.2014 00:45 13,4 C 88 % 1011,4 hPa 0,0 l/m 0,0 km/h (0 Bft) S 175 0 min 0,000 mm 0,0 UV-I 0 W/m 11,5 C 13,4 C 0,0 km/h (0 Bft) 0,00 %
11.09.2014 01:00 13,5 C 86 % 1011,5 hPa 0,0 l/m 0,0 km/h (0 Bft) S 176 0 min 0,000 mm 0,0 UV-I 0 W/m 11,2 C 13,5 C 0,0 km/h (0 Bft) 0,00 %
11.09.2014 01:15 13,3 C 85 % 1011,3 hPa 0,0 l/m 0,0 km/h (0 Bft) S 176 0 min 0,000 mm 0,0 UV-I 0 W/m 10,8 C 13,3 C 0,0 km/h (0 Bft) 0,00 %
11.09.2014 01:30 13,2 C 87 % 1011,4 hPa 0,0 l/m 0,0 km/h (0 Bft) S 173 0 min 0,000 mm 0,0 UV-I 0 W/m 11,1 C 13,2 C 0,0 km/h (0 Bft) 0,00 %
11.09.2014 01:45 13,0 C 90 % 1011,3 hPa 0,0 l/m 0,0 km/h (0 Bft) S-SO 158 0 min 0,000 mm 0,0 UV-I 0 W/m 11,4 C 13,0 C 0,0 km/h (0 Bft) 0,00 %
11.09.2014 02:00 12,9 C 91 % 1011,6 hPa 0,0 l/m 0,0 km/h (0 Bft) S-SO 164 0 min 0,000 mm 0,0 UV-I 0 W/m 11,5 C 12,9 C 0,0 km/h (0 Bft) 0,00 %
11.09.2014 02:15 12,9 C 86 % 1011,6 hPa 0,0 l/m 0,0 km/h (0 Bft) S-SO 168 0 min 0,000 mm 0,0 UV-I 0 W/m 10,6 C 12,9 C 0,0 km/h (0 Bft) 0,00 %
11.09.2014 02:30 13,0 C 84 % 1011,3 hPa 0,0 l/m 0,0 km/h (0 Bft) S 174 0 min 0,000 mm 0,0 UV-I 0 W/m 10,4 C 13,0 C 0,0 km/h (0 Bft) 0,00 %
11.09.2014 02:45 12,9 C 86 % 1011,3 hPa 0,0 l/m 0,0 km/h (0 Bft) O-SO 112 0 min 0,000 mm 0,0 UV-I 0 W/m 10,6 C 12,9 C 4,0 km/h (1 Bft) 0,00 %
11.09.2014 03:00 12,7 C 87 % 1011,2 hPa 0,0 l/m 0,0 km/h (0 Bft) SO 135 0 min 0,000 mm 0,0 UV-I 0 W/m 10,6 C 12,7 C 0,0 km/h (0 Bft) 0,00 %
11.09.2014 03:15 12,6 C 86 % 1010,9 hPa 0,0 l/m 0,0 km/h (0 Bft) S 172 0 min 0,000 mm 0,0 UV-I 0 W/m 10,3 C 12,6 C 0,0 km/h (0 Bft) 0,00 %
11.09.2014 03:30 12,6 C 84 % 1011,0 hPa 0,0 l/m 0,7 km/h (0 Bft) S 176 0 min 0,000 mm 0,0 UV-I 0 W/m 10,0 C 12,6 C 0,0 km/h (0 Bft) 0,00 %
11.09.2014 03:45 12,5 C 84 % 1011,0 hPa 0,0 l/m 0,0 km/h (0 Bft) W-SW 256 0 min 0,000 mm 0,0 UV-I 0 W/m 9,9 C 12,5 C 0,0 km/h (0 Bft) 0,00 %
11.09.2014 04:00 12,3 C 85 % 1010,9 hPa 0,0 l/m 0,0 km/h (0 Bft) S 173 0 min 0,000 mm 0,0 UV-I 0 W/m 9,9 C 12,3 C 0,0 km/h (0 Bft) 0,00 %
11.09.2014 04:15 12,2 C 86 % 1011,1 hPa 0,0 l/m 0,0 km/h (0 Bft) N-NW 333 0 min 0,000 mm 0,0 UV-I 0 W/m 9,9 C 12,2 C 0,0 km/h (0 Bft) 0,00 %
11.09.2014 04:30 12,3 C 86 % 1010,9 hPa 0,0 l/m 0,0 km/h (0 Bft) NO 40 0 min 0,000 mm 0,0 UV-I 0 W/m 10,0 C 12,3 C 0,0 km/h (0 Bft) 0,00 %
11.09.2014 04:45 12,4 C 85 % 1011,0 hPa 0,0 l/m 0,0 km/h (0 Bft) SO 139 0 min 0,000 mm 0,0 UV-I 0 W/m 9,9 C 12,4 C 0,0 km/h (0 Bft) 0,00 %
11.09.2014 05:00 12,2 C 85 % 1010,7 hPa 0,0 l/m 0,0 km/h (0 Bft) O-NO 71 0 min 0,000 mm 0,0 UV-I 0 W/m 9,8 C 12,2 C 0,0 km/h (0 Bft) 0,00 %
11.09.2014 05:15 12,1 C 85 % 1010,8 hPa 0,0 l/m 0,0 km/h (0 Bft) NO 43 0 min 0,000 mm 0,0 UV-I 0 W/m 9,7 C 12,1 C 0,0 km/h (0 Bft) 0,00 %
11.09.2014 05:30 11,9 C 86 % 1010,6 hPa 0,0 l/m 0,0 km/h (0 Bft) O-SO 112 0 min 0,000 mm 0,0 UV-I 0 W/m 9,6 C 11,9 C 0,0 km/h (0 Bft) 0,00 %
11.09.2014 05:45 11,9 C 86 % 1010,7 hPa 0,0 l/m 0,0 km/h (0 Bft) NW 323 0 min 0,000 mm 0,0 UV-I 0 W/m 9,6 C 11,9 C 0,0 km/h (0 Bft) 0,00 %
11.09.2014 06:00 12,0 C 85 % 1010,6 hPa 0,0 l/m 0,0 km/h (0 Bft) S 185 0 min 0,000 mm 0,0 UV-I 0 W/m 9,6 C 12,0 C 0,0 km/h (0 Bft) 0,00 %
11.09.2014 06:15 12,0 C 85 % 1010,6 hPa 0,0 l/m 0,0 km/h (0 Bft) S-SW 213 0 min 0,000 mm 0,0 UV-I 0 W/m 9,6 C 12,0 C 0,0 km/h (0 Bft) 0,00 %
11.09.2014 06:30 12,0 C 84 % 1010,7 hPa 0,0 l/m 0,0 km/h (0 Bft) S 185 0 min 0,000 mm 0,0 UV-I 0 W/m 9,4 C 12,0 C 0,0 km/h (0 Bft) 0,00 %
11.09.2014 06:45 11,7 C 86 % 1010,8 hPa 0,0 l/m 0,0 km/h (0 Bft) S-SW 207 0 min 0,000 mm 1,0 UV-I 0 W/m 9,4 C 11,7 C 0,0 km/h (0 Bft) 0,00 %
11.09.2014 07:00 11,7 C 87 % 1010,9 hPa 0,0 l/m 0,0 km/h (0 Bft) S-SW 195 0 min 0,000 mm 1,0 UV-I 7 W/m 9,6 C 11,7 C 0,0 km/h (0 Bft) 0,00 %
11.09.2014 07:15 12,0 C 86 % 1011,0 hPa 0,0 l/m 0,0 km/h (0 Bft) S-SW 193 0 min 0,000 mm 1,0 UV-I 32 W/m 9,7 C 12,0 C 0,0 km/h (0 Bft) 0,00 %
11.09.2014 07:30 12,5 C 86 % 1010,9 hPa 0,0 l/m 0,0 km/h (0 Bft) O-SO 117 0 min 0,000 mm 1,0 UV-I 54 W/m 10,2 C 12,5 C 0,0 km/h (0 Bft) 0,00 %
11.09.2014 07:45 12,8 C 83 % 1010,8 hPa 0,0 l/m 0,0 km/h (0 Bft) O-NO 63 0 min 0,000 mm 1,0 UV-I 83 W/m 10,0 C 12,8 C 0,0 km/h (0 Bft) 0,00 %
11.09.2014 08:00 13,3 C 83 % 1011,0 hPa 0,0 l/m 0,0 km/h (0 Bft) SO 136 0 min 0,000 mm 1,0 UV-I 82 W/m 10,5 C 13,3 C 0,0 km/h (0 Bft) 0,00 %
11.09.2014 08:15 13,6 C 79 % 1010,8 hPa 0,0 l/m 0,0 km/h (0 Bft) S-SO 161 0 min 0,000 mm 1,0 UV-I 96 W/m 10,0 C 13,6 C 0,0 km/h (0 Bft) 0,00 %
11.09.2014 08:30 13,5 C 80 % 1010,7 hPa 0,0 l/m 0,0 km/h (0 Bft) W-SW 252 0 min 0,000 mm 1,0 UV-I 95 W/m 10,1 C 13,5 C 4,0 km/h (1 Bft) 0,00 %
11.09.2014 08:45 13,5 C 79 % 1010,8 hPa 0,0 l/m 0,0 km/h (0 Bft) N 354 0 min 0,000 mm 1,0 UV-I 80 W/m 9,9 C 13,5 C 0,0 km/h (0 Bft) 0,00 %
11.09.2014 09:00 13,4 C 81 % 1010,6 hPa 0,0 l/m 0,0 km/h (0 Bft) S-SW 200 0 min 0,000 mm 1,0 UV-I 82 W/m 10,2 C 13,4 C 0,0 km/h (0 Bft) 0,00 %
11.09.2014 09:15 13,5 C 80 % 1010,7 hPa 0,0 l/m 1,4 km/h (1 Bft) N 354 0 min 0,000 mm 1,0 UV-I 99 W/m 10,1 C 13,5 C 0,0 km/h (0 Bft) 0,00 %
11.09.2014 09:30 13,7 C 80 % 1010,8 hPa 0,0 l/m 0,0 km/h (0 Bft) N 7 0 min 0,000 mm 1,0 UV-I 99 W/m 10,3 C 13,7 C 4,0 km/h (1 Bft) 0,00 %
11.09.2014 09:45 13,9 C 79 % 1010,8 hPa 0,0 l/m 0,0 km/h (0 Bft) SW 230 0 min 0,000 mm 1,0 UV-I 85 W/m 10,3 C 13,9 C 0,0 km/h (0 Bft) 0,00 %
11.09.2014 10:00 14,1 C 80 % 1010,6 hPa 0,0 l/m 0,0 km/h (0 Bft) N-NW 347 0 min 0,000 mm 2,0 UV-I 98 W/m 10,7 C 14,1 C 4,0 km/h (1 Bft) 0,00 %
11.09.2014 10:15 14,1 C 79 % 1010,9 hPa 0,0 l/m 1,8 km/h (1 Bft) O-NO 58 0 min 0,000 mm 2,0 UV-I 134 W/m 10,5 C 14,1 C 0,0 km/h (0 Bft) 0,00 %
11.09.2014 10:30 14,2 C 78 % 1010,9 hPa 0,0 l/m 0,0 km/h (0 Bft) N 349 0 min 0,000 mm 3,0 UV-I 128 W/m 10,4 C 14,2 C 4,0 km/h (1 Bft) 0,00 %
11.09.2014 10:45 14,4 C 78 % 1010,7 hPa 0,0 l/m 0,4 km/h (0 Bft) N-NW 338 0 min 0,000 mm 2,0 UV-I 122 W/m 10,6 C 14,4 C 0,0 km/h (0 Bft) 0,00 %
11.09.2014 11:00 14,5 C 78 % 1010,6 hPa 0,0 l/m 0,0 km/h (0 Bft) NW 318 0 min 0,000 mm 1,0 UV-I 198 W/m 10,7 C 14,5 C 0,0 km/h (0 Bft) 0,00 %
11.09.2014 11:15 14,6 C 77 % 1010,6 hPa 0,0 l/m 0,4 km/h (0 Bft) O-SO 113 0 min 0,000 mm 3,0 UV-I 212 W/m 10,6 C 14,6 C 4,0 km/h (1 Bft) 0,00 %
11.09.2014 11:30 15,0 C 75 % 1010,6 hPa 0,0 l/m 0,0 km/h (0 Bft) O 89 0 min 0,000 mm 3,0 UV-I 219 W/m 10,6 C 15,0 C 4,0 km/h (1 Bft) 0,00 %
11.09.2014 11:45 14,8 C 75 % 1010,9 hPa 0,0 l/m 0,0 km/h (0 Bft) O-SO 108 0 min 0,000 mm 1,0 UV-I 124 W/m 10,4 C 14,8 C 4,0 km/h (1 Bft) 0,00 %
11.09.2014 12:00 15,0 C 72 % 1010,6 hPa 0,0 l/m 1,4 km/h (1 Bft) O 99 0 min 0,000 mm 3,0 UV-I 180 W/m 10,0 C 15,0 C 7,9 km/h (2 Bft) 0,00 %
11.09.2014 12:15 15,3 C 70 % 1010,7 hPa 0,0 l/m 1,4 km/h (1 Bft) O-SO 107 0 min 0,000 mm 2,0 UV-I 216 W/m 9,9 C 15,3 C 0,0 km/h (0 Bft) 0,00 %
11.09.2014 12:30 15,1 C 72 % 1010,7 hPa 0,0 l/m 2,9 km/h (1 Bft) N-NO 24 0 min 0,000 mm 2,0 UV-I 176 W/m 10,1 C 15,1 C 4,0 km/h (1 Bft) 0,00 %
11.09.2014 12:45 15,1 C 70 % 1010,3 hPa 0,0 l/m 4,3 km/h (1 Bft) N-NW 342 0 min 0,000 mm 1,0 UV-I 258 W/m 9,7 C 15,1 C 4,0 km/h (1 Bft) 0,00 %
11.09.2014 13:00 15,3 C 69 % 1010,6 hPa 0,0 l/m 0,0 km/h (0 Bft) N-NO 31 0 min 0,000 mm 1,0 UV-I 199 W/m 9,6 C 15,3 C 4,0 km/h (1 Bft) 0,00 %
11.09.2014 13:15 15,3 C 70 % 1010,6 hPa 0,0 l/m 0,4 km/h (0 Bft) NO 54 0 min 0,000 mm 1,0 UV-I 211 W/m 9,9 C 15,3 C 4,0 km/h (1 Bft) 0,00 %
11.09.2014 13:30 15,0 C 72 % 1010,8 hPa 0,0 l/m 0,4 km/h (0 Bft) NO 39 0 min 0,000 mm 1,0 UV-I 111 W/m 10,0 C 15,0 C 4,0 km/h (1 Bft) 0,00 %
11.09.2014 13:45 14,6 C 74 % 1010,9 hPa 0,0 l/m 0,4 km/h (0 Bft) S 181 0 min 0,000 mm 1,0 UV-I 99 W/m 10,0 C 14,6 C 4,0 km/h (1 Bft) 0,00 %
11.09.2014 14:00 14,4 C 75 % 1010,8 hPa 0,0 l/m 0,4 km/h (0 Bft) N-NO 29 0 min 0,000 mm 1,0 UV-I 110 W/m 10,0 C 14,4 C 4,0 km/h (1 Bft) 0,00 %
11.09.2014 14:15 14,3 C 75 % 1011,0 hPa 0,0 l/m 0,4 km/h (0 Bft) NO 43 0 min 0,000 mm 1,0 UV-I 112 W/m 9,9 C 14,3 C 4,0 km/h (1 Bft) 0,00 %
11.09.2014 14:30 14,3 C 75 % 1011,0 hPa 0,0 l/m 0,4 km/h (0 Bft) O-SO 110 0 min 0,000 mm 2,0 UV-I 117 W/m 9,9 C 14,3 C 0,0 km/h (0 Bft) 0,00 %
11.09.2014 14:45 14,3 C 76 % 1011,2 hPa 0,0 l/m 1,4 km/h (1 Bft) N 356 0 min 0,000 mm 2,0 UV-I 126 W/m 10,1 C 14,3 C 0,0 km/h (0 Bft) 0,00 %
11.09.2014 15:00 14,4 C 74 % 1010,9 hPa 0,0 l/m 0,4 km/h (0 Bft) O-NO 58 0 min 0,000 mm 1,0 UV-I 121 W/m 9,8 C 14,4 C 4,0 km/h (1 Bft) 0,00 %
11.09.2014 15:15 14,5 C 73 % 1010,6 hPa 0,0 l/m 0,0 km/h (0 Bft) NW 322 0 min 0,000 mm 1,0 UV-I 158 W/m 9,7 C 14,5 C 0,0 km/h (0 Bft) 0,00 %
11.09.2014 15:30 14,5 C 75 % 1010,8 hPa 0,0 l/m 0,0 km/h (0 Bft) N-NW 336 0 min 0,000 mm 1,0 UV-I 157 W/m 10,1 C 14,5 C 4,0 km/h (1 Bft) 0,00 %
11.09.2014 15:45 14,6 C 76 % 1010,7 hPa 0,0 l/m 0,4 km/h (0 Bft) N-NW 343 0 min 0,000 mm 1,0 UV-I 142 W/m 10,4 C 14,6 C 0,0 km/h (0 Bft) 0,00 %
11.09.2014 16:00 14,3 C 77 % 1011,0 hPa 0,0 l/m 0,0 km/h (0 Bft) W-NW 294 0 min 0,000 mm 1,0 UV-I 102 W/m 10,3 C 14,3 C 0,0 km/h (0 Bft) 0,00 %
11.09.2014 16:15 14,1 C 78 % 1011,0 hPa 0,0 l/m 0,4 km/h (0 Bft) N-NW 347 0 min 0,000 mm 1,0 UV-I 88 W/m 10,3 C 14,1 C 0,0 km/h (0 Bft) 0,00 %
11.09.2014 16:30 14,1 C 78 % 1011,0 hPa 0,0 l/m 0,0 km/h (0 Bft) O-SO 109 0 min 0,000 mm 1,0 UV-I 76 W/m 10,3 C 14,1 C 0,0 km/h (0 Bft) 0,00 %
11.09.2014 16:45 14,0 C 79 % 1011,1 hPa 0,0 l/m 0,0 km/h (0 Bft) W-SW 256 0 min 0,000 mm 1,0 UV-I 72 W/m 10,4 C 14,0 C 0,0 km/h (0 Bft) 0,00 %
11.09.2014 17:00 13,9 C 81 % 1011,3 hPa 0,0 l/m 0,0 km/h (0 Bft) W-SW 255 0 min 0,000 mm 1,0 UV-I 73 W/m 10,7 C 13,9 C 4,0 km/h (1 Bft) 0,00 %
11.09.2014 17:15 13,8 C 83 % 1011,5 hPa 0,0 l/m 0,0 km/h (0 Bft) NW 307 0 min 0,000 mm 0,0 UV-I 60 W/m 11,0 C 13,8 C 0,0 km/h (0 Bft) 0,00 %
11.09.2014 17:30 13,6 C 82 % 1011,6 hPa 0,0 l/m 0,0 km/h (0 Bft) W-SW 256 0 min 0,000 mm 0,0 UV-I 50 W/m 10,6 C 13,6 C 0,0 km/h (0 Bft) 0,00 %
11.09.2014 17:45 13,3 C 83 % 1011,7 hPa 0,0 l/m 0,4 km/h (0 Bft) NW 312 0 min 0,000 mm 0,0 UV-I 45 W/m 10,5 C 13,3 C 0,0 km/h (0 Bft) 0,00 %
11.09.2014 18:00 13,2 C 83 % 1011,8 hPa 0,0 l/m 0,0 km/h (0 Bft) W-SW 255 0 min 0,000 mm 0,0 UV-I 35 W/m 10,4 C 13,2 C 0,0 km/h (0 Bft) 0,00 %
11.09.2014 18:15 13,0 C 84 % 1011,9 hPa 0,0 l/m 0,0 km/h (0 Bft) S 175 0 min 0,000 mm 0,0 UV-I 22 W/m 10,4 C 13,0 C 0,0 km/h (0 Bft) 0,00 %
11.09.2014 18:30 12,8 C 86 % 1011,9 hPa 0,0 l/m 0,0 km/h (0 Bft) W-SW 255 0 min 0,000 mm 0,0 UV-I 11 W/m 10,5 C 12,8 C 0,0 km/h (0 Bft) 0,00 %
11.09.2014 18:45 12,6 C 86 % 1011,9 hPa 0,0 l/m 0,0 km/h (0 Bft) S 172 0 min 0,000 mm 0,0 UV-I 2 W/m 10,3 C 12,6 C 0,0 km/h (0 Bft) 0,00 %
11.09.2014 19:00 12,6 C 87 % 1011,6 hPa 0,0 l/m 0,0 km/h (0 Bft) W-SW 255 0 min 0,000 mm 0,0 UV-I 0 W/m 10,5 C 12,6 C 0,0 km/h (0 Bft) 0,00 %
11.09.2014 19:15 12,5 C 88 % 1011,6 hPa 0,0 l/m 0,0 km/h (0 Bft) S-SW 211 0 min 0,000 mm 0,0 UV-I 0 W/m 10,6 C 12,5 C 0,0 km/h (0 Bft) 0,00 %
11.09.2014 19:30 12,3 C 88 % 1011,7 hPa 0,3 l/m 0,0 km/h (0 Bft) SW 226 0 min 0,000 mm 0,0 UV-I 0 W/m 10,4 C 12,3 C 0,0 km/h (0 Bft) 0,00 %
11.09.2014 19:45 12,7 C 89 % 1011,7 hPa 0,0 l/m 0,0 km/h (0 Bft) W-SW 251 0 min 0,000 mm 0,0 UV-I 0 W/m 10,9 C 12,7 C 0,0 km/h (0 Bft) 0,00 %
11.09.2014 20:00 12,6 C 90 % 1011,9 hPa 0,0 l/m 0,0 km/h (0 Bft) W-SW 251 0 min 0,000 mm 0,0 UV-I 0 W/m 11,0 C 12,6 C 4,0 km/h (1 Bft) 0,00 %
11.09.2014 20:15 12,5 C 91 % 1011,8 hPa 0,0 l/m 0,0 km/h (0 Bft) SW 234 0 min 0,000 mm 0,0 UV-I 0 W/m 11,1 C 12,5 C 0,0 km/h (0 Bft) 0,00 %
11.09.2014 20:30 12,0 C 92 % 1011,9 hPa 0,0 l/m 0,0 km/h (0 Bft) O-SO 120 0 min 0,000 mm 0,0 UV-I 0 W/m 10,7 C 12,0 C 0,0 km/h (0 Bft) 0,00 %
11.09.2014 20:45 11,8 C 91 % 1012,3 hPa 0,0 l/m 0,4 km/h (0 Bft) W-SW 242 0 min 0,000 mm 0,0 UV-I 0 W/m 10,4 C 11,8 C 0,0 km/h (0 Bft) 0,00 %
11.09.2014 21:00 11,7 C 90 % 1012,1 hPa 0,0 l/m 0,0 km/h (0 Bft) SW 219 0 min 0,000 mm 0,0 UV-I 0 W/m 10,1 C 11,7 C 0,0 km/h (0 Bft) 0,00 %
11.09.2014 21:15 11,6 C 90 % 1012,2 hPa 0,0 l/m 0,0 km/h (0 Bft) O 91 0 min 0,000 mm 0,0 UV-I 0 W/m 10,0 C 11,6 C 0,0 km/h (0 Bft) 0,00 %
11.09.2014 21:30 11,6 C 90 % 1012,1 hPa 0,0 l/m 0,0 km/h (0 Bft) W-SW 256 0 min 0,000 mm 0,0 UV-I 0 W/m 10,0 C 11,6 C 4,0 km/h (1 Bft) 0,00 %
11.09.2014 21:45 11,5 C 91 % 1012,1 hPa 0,0 l/m 0,0 km/h (0 Bft) SW 221 0 min 0,000 mm 0,0 UV-I 0 W/m 10,1 C 11,5 C 4,0 km/h (1 Bft) 0,00 %
11.09.2014 22:00 11,5 C 91 % 1012,0 hPa 0,0 l/m 0,0 km/h (0 Bft) W-SW 256 0 min 0,000 mm 0,0 UV-I 0 W/m 10,1 C 11,5 C 4,0 km/h (1 Bft) 0,00 %
11.09.2014 22:15 11,6 C 91 % 1012,0 hPa 0,0 l/m 0,4 km/h (0 Bft) W-NW 285 0 min 0,000 mm 0,0 UV-I 0 W/m 10,2 C 11,6 C 0,0 km/h (0 Bft) 0,00 %
11.09.2014 22:30 11,6 C 91 % 1012,1 hPa 0,0 l/m 0,4 km/h (0 Bft) W-SW 251 0 min 0,000 mm 0,0 UV-I 0 W/m 10,2 C 11,6 C 0,0 km/h (0 Bft) 0,00 %
11.09.2014 22:45 11,6 C 91 % 1012,0 hPa 0,0 l/m 0,7 km/h (0 Bft) W-NW 303 0 min 0,000 mm 0,0 UV-I 0 W/m 10,2 C 11,6 C 4,0 km/h (1 Bft) 0,00 %
11.09.2014 23:00 11,6 C 91 % 1012,1 hPa 0,0 l/m 0,0 km/h (0 Bft) SO 133 0 min 0,000 mm 0,0 UV-I 0 W/m 10,2 C 11,6 C 0,0 km/h (0 Bft) 0,00 %
11.09.2014 23:15 11,6 C 91 % 1012,1 hPa 0,0 l/m 0,0 km/h (0 Bft) S-SW 196 0 min 0,000 mm 0,0 UV-I 0 W/m 10,2 C 11,6 C 0,0 km/h (0 Bft) 0,00 %
11.09.2014 23:30 11,6 C 91 % 1012,2 hPa 0,3 l/m 0,4 km/h (0 Bft) SW 226 0 min 0,000 mm 0,0 UV-I 0 W/m 10,2 C 11,6 C 0,0 km/h (0 Bft) 0,00 %
11.09.2014 23:45 11,6 C 91 % 1012,0 hPa 0,0 l/m 0,0 km/h (0 Bft) S-SW 203 0 min 0,000 mm 0,0 UV-I 0 W/m 10,2 C 11,6 C 0,0 km/h (0 Bft) 0,00 %
_ Min-Zeit 21:45 13:00 12:45 - 00:00 - - - - - - 06:30 21:45 00:00 00:00
Minimum _ 11,5 C 69 % 1010,3 hPa - 0,0 km/h (0 Bft) - - - - - - 9,4 C 11,5 C 0,0 km/h (0 Bft) 0,00 %
_ Max-Zeit 12:15 20:30 20:45 19:30 12:45 - - 00:00 00:00 10:30 12:45 02:00 12:15 12:00 00:00
Maximum _ 15,3 C 92 % 1012,3 hPa 0,3 l/m 4,3 km/h
N-NW (1 Bft)
- - 0 min 0,000 mm 3,0 UV-I 258 W/m 11,5 C 15,3 C 7,9 km/h
O (2 Bft)
0,00 %
Durchschnitt _ 13,2 C 83 % 1011,2 hPa #0,6 l/m 0,2 km/h (0 Bft) N - #0 min. #0,000 mm 1,4 UV-I 110 W/m 10,3 C 13,2 C 1,1 km/h (1 Bft) 0,00 %